Change the Weather History Date:

Monday, November 4, 2013

  Actual Average Record
Temperature  
Mean Temperature 38 °F 49 °F  
Max Temperature 47 °F 59 °F 78 °F (1974)
Min Temperature 29 °F 39 °F 26 °F (1983)
Degree Days  
Heating Degree Days 27 16  
Month to date heating degree days 58 62  
Since 1 July heating degree days 404 459  
Cooling Degree Days 0 0  
Month to date cooling degree days 0 0  
Year to date cooling degree days 1077 965  
Moisture  
Dew Point 18 °F    
Average Humidity 45    
Maximum Humidity 64    
Minimum Humidity 26    
Precipitation  
Precipitation 0.00 in 0.10 in 1.40 in (1893)
Month to date precipitation 0.36 0.39  
Year to date precipitation 35.97 39.82  
Sea Level Pressure  
Sea Level Pressure 30.58 in    
Wind  
Wind Speed 6 mph (NNE)    
Max Wind Speed 17 mph    
Max Gust Speed 24 mph    
Visibility 10 miles    
Events      
T = Trace of Precipitation, MM = Missing Value Source: NWS Daily Summary

Daily Weather History Graph

Daily Weather History Graph

Search for Another Location

Airport or City:

Trip Planner

Search our weather history database for the weather conditions in past years. The results will help you decide how hot, cold, wet, or windy it might be!

Date:

Astronomy

Nov. 04, 2013 Rise Set
Actual Time 6:32 AM EST 4:52 PM EST
Civil Twilight 6:04 AM EST 5:21 PM EST
Nautical Twilight 5:31 AM EST 5:53 PM EST
Astronomical Twilight 5:00 AM EST 6:25 PM EST
Moon 7:40 AM EST (11/4) 5:55 PM EST (11/4)
Length of Visible Light 11h 16m
Length of Day
10h 20m
New Moon, 2% of the Moon is Illuminated
Nov 4
New Moon
Nov 10
First Quarter
Nov 17
Full
Nov 25
Last Quarter
Dec 2
New

Hourly Weather History & Observations

Time (EST) Temp. Windchill Dew Point Humidity Pressure Visibility Wind Dir Wind Speed Gust Speed Precip Events Conditions
12:53 AM 32.0 °F 26.4 °F 19.0 °F 59% 30.46 in 10.0 mi North 5.8 mph - N/A   Clear
1:53 AM 32.0 °F 25.6 °F 18.0 °F 56% 30.49 in 10.0 mi NNW 6.9 mph - N/A   Clear
2:53 AM 32.0 °F 24.8 °F 19.0 °F 59% 30.49 in 10.0 mi North 8.1 mph - N/A   Clear
3:53 AM 30.9 °F 23.5 °F 19.0 °F 61% 30.52 in 10.0 mi North 8.1 mph - N/A   Clear
4:53 AM 28.9 °F 22.8 °F 18.0 °F 64% 30.54 in 10.0 mi North 5.8 mph - N/A   Clear
5:53 AM 30.0 °F 22.4 °F 18.0 °F 61% 30.55 in 10.0 mi NNW 8.1 mph - N/A   Clear
6:53 AM 30.0 °F 25.2 °F 18.0 °F 61% 30.57 in 10.0 mi NNW 4.6 mph - N/A   Clear
7:53 AM 34.0 °F 28.0 °F 19.0 °F 54% 30.61 in 10.0 mi North 6.9 mph - N/A   Clear
8:53 AM 37.0 °F 28.5 °F 17.1 °F 44% 30.61 in 10.0 mi NE 13.8 mph 20.7 mph N/A   Clear
9:53 AM 39.9 °F 32.5 °F 15.1 °F 36% 30.61 in 10.0 mi NE 12.7 mph 21.9 mph N/A   Clear
10:53 AM 42.1 °F 39.2 °F 15.1 °F 34% 30.61 in 10.0 mi Variable 4.6 mph 20.7 mph N/A   Clear
11:53 AM 44.1 °F 41.5 °F 15.1 °F 31% 30.60 in 10.0 mi Variable 4.6 mph - N/A   Clear
12:53 PM 45.0 °F 41.2 °F 14.0 °F 29% 30.58 in 10.0 mi Variable 6.9 mph - N/A   Clear
1:53 PM 46.0 °F 41.4 °F 15.1 °F 29% 30.58 in 10.0 mi East 9.2 mph - N/A   Clear
2:53 PM 46.0 °F 44.8 °F 14.0 °F 28% 30.58 in 10.0 mi NE 3.5 mph - N/A   Clear
3:53 PM 43.0 °F 40.3 °F 16.0 °F 34% 30.59 in 10.0 mi East 4.6 mph - N/A   Clear
4:53 PM 41.0 °F 39.0 °F 17.1 °F 38% 30.61 in 10.0 mi East 3.5 mph - N/A   Clear
5:53 PM 39.0 °F 34.8 °F 19.0 °F 45% 30.61 in 10.0 mi East 5.8 mph - N/A   Clear
6:53 PM 39.0 °F 34.8 °F 19.9 °F 46% 30.62 in 10.0 mi ENE 5.8 mph - N/A   Clear
7:53 PM 37.9 °F 35.5 °F 21.0 °F 51% 30.62 in 10.0 mi ENE 3.5 mph - N/A   Clear
8:53 PM 36.0 °F 33.3 °F 21.9 °F 57% 30.62 in 10.0 mi North 3.5 mph - N/A   Clear
9:53 PM 34.0 °F 29.8 °F 21.9 °F 61% 30.63 in 10.0 mi North 4.6 mph - N/A   Clear
10:53 PM 36.0 °F 31.1 °F 24.1 °F 62% 30.62 in 10.0 mi NNE 5.8 mph - N/A   Clear
11:53 PM 35.1 °F 30.1 °F 23.0 °F 61% 30.63 in 10.0 mi North 5.8 mph - N/A   Clear